"Pseudo-MPEC" for C03GVT1

Created 2019 Feb 14 3:18:06 UT using Find_Orb

Click here for an explanation of pseudo-MPECs

 
 Astrometry: 
     C03GVT1  C2019 02 11.35279 13 34 17.87 +64 19 52.9    ~2B9I 19.2 GVNEOCP703
     C03GVT1  C2019 02 11.35824 13 34 11.59 +64 19 20.3    ~2B9I 19.1 GVNEOCP703
     C03GVT1  C2019 02 11.36369 13 34 05.21 +64 18 48.2    ~2B9I 19.3 GVNEOCP703
     C03GVT1  C2019 02 11.36914 13 33 58.77 +64 18 14.8    ~2B9I 19.4 GVNEOCP703
     C03GVT1  C2019 02 11.45960 13 32 12.78 +64 09 04.1    ~2BBI 19.3 GVNEOCPI52
     C03GVT1  C2019 02 11.45985 13 32 12.51 +64 09 02.9    ~2BBI 19.5 GVNEOCPI52
     C03GVT1  C2019 02 11.46010 13 32 12.21 +64 09 01.0    ~2BBI 19.4 GVNEOCPI52
     C03GVT1  C2019 02 11.46034 13 32 11.91 +64 08 59.6    ~2BBI 19.1 GVNEOCPI52
     C03GVT1 KC2019 02 124'-YfEIU-cvU)vAstrometry3a[q1C_xR;mUtN///ei)0l8q/4'lL01
     C03GVT1 KC2019 02 12W-cU9%InSwX,t'O#7A;cP)DB:8u`=ccMVBv%vM]83W@c51**N54rL01
     C03GVT1 KC2019 02 12-+)JX:m.?i5V[Ig!fgJa;_u4qWxXE?e*i=\K5%;E;3*i].PyH%gsL01
     C03GVT1 KC2019 02 12f;_)1v.GU#FpAYg%IJhS#6Yj/o0`QHVqcoukbv!fBqa8A%c/X@EkL01
     C03GVT1 KC2019 02 12i$cSs=(?Y$@yFka^\'!k:A6+RxFMl8=JUJwr,,06+0\F3@(nuM.=L01
     C03GVT1  C2019 02 12.33025 13 16 32.79 +62 33 54.2    ~2C8I 19.5 GVNEOCPI52
     C03GVT1  C2019 02 12.33043 13 16 32.58 +62 33 53.1    ~2C8I 19.1 GVNEOCPI52
     C03GVT1  C2019 02 12.33062 13 16 32.35 +62 33 51.3    ~2C8I 19.3 GVNEOCPI52
     C03GVT1  C2019 02 12.33320 13 16 29.59 +62 33 33.9    ~2C8I 19.1 GVNEOCPI52
     C03GVT1 KC2019 02 12.41789813 14 58.89 +62 23 59.1    ~2CAX 19.1 GVNEOCPV03
     C03GVT1 KC2019 02 12.42098413 14 55.51 +62 23 38.5    ~2CAX 19.2 GVNEOCPV03
     C03GVT1 KC2019 02 12.42407013 14 52.27 +62 23 16.5    ~2CAX 19.1 GVNEOCPV03
     C03GVT1 KC2019 02 12-91b=/5I%u3pD,'1c%!7hredacted;=T\fpPcW]VCtRiw1d1'jUg587
     C03GVT1 KC2019 02 12gfZ#R*TobkL_Ek4wx.^CcKn)?])3cpyDN,((!DM')s'ta%w`35)Q587
     C03GVT1 KC2019 02 12mxhFvR%x.I%5SR=M:v$T/9]:4)Y#BMR^YW6A[p14HN;$tpg3S(gB587
     C03GVT1 KC2019 02 12..TFBe7=F-N4/V*LZ$BH7P*YLoZKZ;MB$[iFFZcGgl[PHe)iyQ[O104
     C03GVT1 KC2019 02 12di-amh*mid16+#K[%7^.Z79o@NcuX7!w[/^(QhP@RaV]\rCs0,-G104
     C03GVT1 KC2019 02 12,2r)G[g)2/Y-at=x8yK6L[BZ)A7Jo1AC9_Dt'N`6-mR\1*N0Ud]7104
     C03GVT1 KC2019 02 12wM?yK2_o`@CGV+clickn.gYmojHZ'9tR3nfA+SlrlbX2_YCjN+1-C77
     C03GVT1 KC2019 02 12:id(lXnFTSSFKFb*2HcUlkaXy_9*`.=Uw']C:Qin*wn0CWnU%1eqC77
     C03GVT1 KC2019 02 12`PW[(9rKSIo!-loqiLex+w=#i,0/)JiY($;AvANy6O,\x$%KCWV@C77
     C03GVT1 KC2019 02 12M#/p67tRXJs,Ic5Vy34X8W5IR06O0eVgtMX1!0CL])O+S+s1D+Fm203
     C03GVT1 KC2019 02 12(p5VwmAyWd%nmTne:Gqg2oLYcjy[*G=7tx^;Qp0dM3mX4dG3LZO6203
     C03GVT1 KC2019 02 12bAb:%$EO^/:eN'X`;B`bU3v^#gNbq%8%?q]?GAN;,VB?=]aWqDv/203
     C03GVT1 KC2019 02 13ld9Khere^1bW2]_Miob3,Jj,u5)^65f?\2^v7vay-s\lF%bohu!lK38
     C03GVT1 KC2019 02 137K:WjQi(MZX4Yea;X-A@VcWU\ev7V!([p`LG).tdgbCRI9d04+fwK38
     C03GVT1 KC2019 02 13NM]V/Sp[CN0jacmT'#h2CegAq$^yRe]ct6Y/kYSswcd9Wm.56tX!K38
     C03GVT1 KC2019 02 13MWc6QToaE):ZW\M8:uO1taf6o91`@^q)NI]wd\XU;57h'+='4Nv;204
     C03GVT1 KC2019 02 13;W2iZIgD`G;bk,+M8HTLwVl#G-)vd;eDdRBJx?CLGpJKDG[!m^HG204
     C03GVT1 KC2019 02 13Zq0g94A7T][Z_QR/v08w#v$o/Ud]ETd2nyS_-jtg)Ls8(o@GYqG^204
     C03GVT1 KC2019 02 13*XJWI/m*+w0XilMl3N%^Oc$:Vc-Jmc\c39fforwWZ[1ktT]!J*bYH36
     C03GVT1 KC2019 02 13$xx`a2SNcdbDZMi.'c(Qm.m'+ZT+eicch#$TVRqtn;TA^bIdL+o?H36
     C03GVT1 KC2019 02 13^xG%f%^t[jk0_`dZDM]cSh2L5uM4M\riZsI!x-O4QAD6'.q5.iBwH36
     C03GVT1 KC2019 02 13XXr!lF$GDewX=rVSSe$YT3wdXFPcBQuT#v#!HHfyZ)q77$Vo8d\:H36
     C03GVT1 KC2019 02 13)(]_o8cJ:ej9ytdjeh4equ=!hHEK*ccj2!-\;rMTK!rf:A'qpbiKK38
     C03GVT1 KC2019 02 13@FsM)4y0BJ1:fw/]Q*#F%07v@gd8-d2ZGF3WC8h7$?F;KPZN*`N0K38
     C03GVT1 KC2019 02 13):4;O6bm_\PYexplanation!wtLM.T2o\Bt(ec,H#t,04I$M#:#6K38
     C03GVT1 KC2019 02 14.11384812 48 05.77 +58 53 30.8    ~2E3I 19.2 GVNEOCPJ95
     C03GVT1 KC2019 02 14.12010612 48 00.14 +58 52 41.6    ~2E3I 19.2 GVNEOCPJ95
     C03GVT1 KC2019 02 14.12625612 47 54.60 +58 51 53.0    ~2E3I 19.1 GVNEOCPJ95

Station data:
(104) San Marcello Pistoiese  (N44.063037 E10.804200)  Italy. 0.40-m f/5
   reflector.
(203) GiaGa Observatory  (N45.541408 E8.995500)  Italy. 0.13-m f/6.4
   refractor.
(204) Schiaparelli Observatory  (N45.867933 E8.770800)  Italy.  Observer L.
   Buzzi. 0.60-m f/4.64 Newtonian + CCD.
(587) Sormano  (N45.882949 E9.229180)  Italy.  Observers F. Manca, A. Testa.
   Measurer F. Manca. 0.5-m + CCD.
(703) Catalina Sky Survey  (N32.417006 W110.732640)  US/Arizona.  Observers
   B. M. Africano, E. J. Christensen, G. A. Farneth, D. C. Fuls, A. R. Gibbs,
   A. D. Grauer, H. Groeller, J. A. Johnson, R. A. Kowalski, S. M. Larson, G.
   J. Leonard, R. L. Seaman, F. C. Shelly. 0.68 m Schmidt + 10K CCD.
(C77) Bernezzo Observatory  (N44.385250 E7.453500)  Italy.
(H36) Sandlot Observatory, Scranton  (N38.797693 W95.706400)  US/Kansas.
   Observer G. Hug. 0.56-m reflector + CCD.
(I52) Steward Observatory, Mt. Lemmon Station  (N32.442547 W110.788920)
   US/Arizona.  Observers B. M. Africano, E. J. Christensen, G. A. Farneth,
   D. C. Fuls, A. R. Gibbs, A. D. Grauer, H. Groeller, J. A. Johnson, R. A.
   Kowalski, S. M. Larson, G. J. Leonard, R. L. Seaman, F. C. Shelly. 1.0-m
   reflector + CCD.
(J95) Great Shefford  (N51.474969 W1.447003)  UK.  Observer P. Birtwhistle.
   0.40-m f/6.0 Schmidt-Cassegrain + CCD.
(K38) M57 Observatory, Saltrio  (N45.873785 E8.918240)  Italy.
(L01) Višnjan Observatory, Tičan  (N45.290900 E13.749300)  Croatia.
   Observers K. Korlević, E. Pettarin. Measurer E. Pettarin. 1.0-m f/2.9
   reflector + CCD.
(V03) Big Water  (N37.083379 W111.668600)  US/Utah.  Observer D. Rankin.
   0.30-m reflector + CCD.

Orbital elements:  C03GVT1
   Perihelion 2019 Jan 9.828437 +/- 0.0478 TT = 19:52:57 (JD 2458493.328437)
Epoch 2019 Feb 14.0 TT = JDT 2458528.5   Earth MOID: 0.1592   AutoNEOCP
M   8.87729117 +/- 0.11             (J2000 ecliptic)
n   0.25239967 +/- 0.00289          Peri.  116.16232 +/- 0.038
a   2.47976304 +/- 0.019            Node   345.88456 +/- 0.007
e   0.6057104 +/- 0.00293           Incl.   19.76024 +/- 0.07
P   3.90                   H 21.4   G  0.15   U  8.8  
q 0.97774459 +/- 0.000208    Q 3.98178149 +/- 0.0373
From 48 observations 2019 Feb. 11-14; mean residual 0".36
Residuals in arcseconds: 
190211 703  .29-  .11-    190212 I52  .24-  .42-    190213 K38  .37-  .04+    
190211 703  .31+  .19-    190212 V03  .08+  .23-    190213 K38  .39-  .03+    
190211 703  .28+  .29+    190212 V03  .47-  .26+    190213 K38  .30-  .09+    
190211 703  .12-  .47-    190212 V03  .05-  .62-    190213 204  .20-  .07-    
190211 I52  .01+  .04-    190212 587  .20+  .30-    190213 204  .01+  .06-    
190211 I52  .16+  .31+    190212 587  .34+  .36-    190213 204  .02-  .00     
190211 I52  .11+  .04-    190212 587  .24-  .22-    190213 H36  1.5+  .29+    
190211 I52  .01-  .05+    190212 104  .05-  .12+    190213 H36  .53+  .64+    
190212 L01  .13-  .21+    190212 104  .68+  .48-    190213 H36  .03+  .05+    
190212 L01  .08+  .38+    190212 104  .07+  .07-    190213 H36  1.1-  .38-    
190212 L01  .03+  .08-    190212 C77  .28+  1.5+    190213 K38  .62-  .26+    
190212 L01  .02+  .15-    190212 C77  .12-  .23+    190213 K38  .59-  .43+    
190212 L01  .34+  .12+    190212 C77  .42-  .01+    190213 K38  .20+  .25+    
190212 I52  .09+  .24+    190212 203  .51-  .16+    190214 J95  .12+  .29-    
190212 I52  .04-  .34+    190212 203  .26+  .05+    190214 J95  .07+  .00     
190212 I52  .22-  .20-    190212 203  .34-  .26-    190214 J95  .05-  .10+    

Ephemerides (geocentric):
Date (UTC) HH   RA              Dec         delta   r     elong  mag " sig PA
---- -- -- --  -------------   -----------  ------ ------ -----  --- ---- ---
2019 02 14 03  12 47 55.369   +58 51 55.89  .16152 1.0851 123.6 19.4 .041  73
2019 02 14 04  12 47 19.184   +58 46 24.80  .16147 1.0853 123.7 19.4 .040  74
2019 02 14 05  12 46 43.155   +58 40 52.79  .16142 1.0856 123.8 19.4 .039  74
2019 02 14 06  12 46 07.281   +58 35 19.88  .16137 1.0858 123.9 19.4 .038  74
2019 02 14 07  12 45 31.561   +58 29 46.06  .16132 1.0860 124.1 19.4 .037  75
2019 02 14 08  12 44 55.994   +58 24 11.35  .16128 1.0863 124.2 19.4 .037  75
2019 02 14 09  12 44 20.580   +58 18 35.75  .16123 1.0865 124.3 19.4 .036  76
2019 02 14 10  12 43 45.319   +58 12 59.27  .16119 1.0867 124.4 19.4 .035  76
2019 02 14 11  12 43 10.209   +58 07 21.91  .16114 1.0870 124.5 19.4 .034  77
2019 02 14 12  12 42 35.251   +58 01 43.68  .16110 1.0872 124.7 19.4 .034  77
2019 02 14 13  12 42 00.444   +57 56 04.59  .16105 1.0874 124.8 19.4 .033  78
2019 02 14 14  12 41 25.788   +57 50 24.64  .16101 1.0877 124.9 19.4 .032  78
2019 02 14 15  12 40 51.281   +57 44 43.84  .16097 1.0879 125.0 19.4 .031  79
2019 02 14 16  12 40 16.923   +57 39 02.20  .16093 1.0882 125.2 19.4 .031  79
2019 02 14 17  12 39 42.714   +57 33 19.72  .16089 1.0884 125.3 19.4 .030  80
2019 02 14 18  12 39 08.653   +57 27 36.40  .16085 1.0886 125.4 19.4 .030  80
2019 02 14 19  12 38 34.739   +57 21 52.27  .16081 1.0889 125.5 19.4 .029  81
2019 02 14 20  12 38 00.973   +57 16 07.32  .16077 1.0891 125.6 19.4 .029  81
2019 02 14 21  12 37 27.352   +57 10 21.55  .16073 1.0893 125.8 19.4 .028  82
2019 02 14 22  12 36 53.878   +57 04 34.98  .16070 1.0896 125.9 19.4 .027  82
2019 02 14 23  12 36 20.549   +56 58 47.62  .16066 1.0898 126.0 19.4 .027  83
2019 02 15 00  12 35 47.365   +56 52 59.46  .16063 1.0900 126.1 19.4 .027  83
2019 02 15 01  12 35 14.325   +56 47 10.52  .16059 1.0903 126.3 19.4 .026  84
2019 02 15 02  12 34 41.429   +56 41 20.79  .16056 1.0905 126.4 19.4 .026  84
2019 02 15 03  12 34 08.676   +56 35 30.30  .16053 1.0908 126.5 19.4 .025  84
2019 02 15 04  12 33 36.065   +56 29 39.04  .16049 1.0910 126.6 19.4 .025  85
2019 02 15 05  12 33 03.596   +56 23 47.02  .16046 1.0912 126.8 19.3 .025  85
2019 02 15 06  12 32 31.268   +56 17 54.25  .16043 1.0915 126.9 19.3 .024  85
2019 02 15 07  12 31 59.081   +56 12 00.74  .16040 1.0917 127.0 19.3 .024  86
2019 02 15 08  12 31 27.034   +56 06 06.48  .16037 1.0920 127.1 19.3 .024  86
2019 02 15 09  12 30 55.127   +56 00 11.49  .16035 1.0922 127.3 19.3 .023  86
2019 02 15 10  12 30 23.359   +55 54 15.78  .16032 1.0924 127.4 19.3 .023  86
2019 02 15 11  12 29 51.729   +55 48 19.35  .16029 1.0927 127.5 19.3 .023  86
2019 02 15 12  12 29 20.237   +55 42 22.20  .16026 1.0929 127.6 19.3 .023  86
2019 02 15 13  12 28 48.882   +55 36 24.35  .16024 1.0932 127.8 19.3 .023  86
2019 02 15 14  12 28 17.664   +55 30 25.80  .16022 1.0934 127.9 19.3 .023  86
2019 02 15 15  12 27 46.583   +55 24 26.56  .16019 1.0936 128.0 19.3 .022  86
2019 02 15 16  12 27 15.636   +55 18 26.63  .16017 1.0939 128.1 19.3 .022  85
2019 02 15 17  12 26 44.825   +55 12 26.02  .16015 1.0941 128.3 19.3 .022  85
2019 02 15 18  12 26 14.148   +55 06 24.74  .16013 1.0944 128.4 19.3 .022  85
2019 02 15 19  12 25 43.605   +55 00 22.80  .16010 1.0946 128.5 19.3 .022  84
2019 02 15 20  12 25 13.195   +54 54 20.19  .16009 1.0948 128.6 19.3 .022  84
2019 02 15 21  12 24 42.917   +54 48 16.93  .16007 1.0951 128.8 19.3 .022  83
2019 02 15 22  12 24 12.772   +54 42 13.03  .16005 1.0953 128.9 19.3 .022  83
2019 02 15 23  12 23 42.758   +54 36 08.48  .16003 1.0956 129.0 19.3 .023  82
2019 02 16 00  12 23 12.876   +54 30 03.31  .16001 1.0958 129.1 19.3 .023  81
2019 02 16 01  12 22 43.123   +54 23 57.50  .16000 1.0961 129.3 19.3 .023  81
2019 02 16 02  12 22 13.500   +54 17 51.08  .15998 1.0963 129.4 19.3 .023  80